Temp
-5 -5 -5 -5 -5 -5 -5 -5 -5 -5 -5 -5 -5 -5 -5 -5 -5 -5 -5 -5 -5 -6 -6 -6 -6 -6 -6 -6 -6 -6 -6 -6 -6 -6 -6 -7 -7 -7 -7 -7 -7 -7
-5 -5 -5 -5 -5 -5 -5 -5 -5 -5 -5 -4 -5 -5 -5 -5 -5 -5 -5 -5 -5 -5 -5 -6 -6 -6 -6 -6 -6 -6 -6 -6 -6 -6 -6 -7 -7 -7 -7 -7 -7 -7
-5 -5 -5 -5 -5 -5 -5 -5 -5 -4 -5 -5 -5 -5 -5 -5 -5 -5 -5 -5 -5 -5 -5 -6 -6 -6 -6 -6 -6 -6 -6 -6 -6 -6 -7 -7 -7 -7 -7 -7 -7 -7
-5 -5 -5 -5 -5 -5 -5 -4 -4 -4 -4 -4 -4 -4 -4 -5 -5 -5 -5 -5 -5 -5 -5 -6 -6 -6 -6 -6 -6 -6 -6 -6 -6 -6 -7 -7 -7 -7 -7 -7 -7 -7
-5 -5 -5 -5 -5 -5 -5 -5 -4 -4 -4 -4 -4 -4 -4 -4 -5 -5 -5 -5 -5 -5 -5 -5 -6 -6 -6 -6 -6 -6 -6 -6 -6 -6 -7 -7 -7 -7 -7 -7 -7 -7
-5 -5 -5 -5 -5 -5 -5 -5 -4 -4 -4 -4 -4 -4 -4 -4 -5 -5 -5 -5 -5 -5 -5 -5 -5 -6 -6 -6 -6 -6 -6 -6 -6 -7 -7 -7 -7 -7 -7 -7 -8 -8
-5 -5 -5 -5 -5 -5 -5 -5 -5 -5 -4 -4 -4 -4 -5 -5 -5 -5 -5 -5 -5 -5 -5 -5 -5 -6 -6 -6 -6 -6 -6 -6 -6 -7 -7 -7 -7 -7 -8 -8 -8 -8
-6 -5 -5 -5 -5 -5 -5 -5 -5 -5 -5 -5 -5 -5 -5 -5 -5 -5 -5 -5 -5 -5 -5 -5 -5 -6 -6 -6 -6 -6 -6 -6 -6 -7 -7 -7 -7 -7 -7 -8 -8 -8
-6 -5 -5 -5 -5 -5 -5 -5 -5 -5 -5 -5 -5 -5 -5 -5 -5 -5 -5 -5 -5 -5 -5 -5 -5 -5 -6 -6 -6 -6 -6 -6 -6 -7 -7 -7 -7 -7 -7 -7 -7 -7
-6 -6 -5 -5 -5 -5 -5 -5 -5 -5 -5 -5 -5 -5 -5 -5 -5 -5 -5 -5 -5 -5 -5 -5 -5 -5 -5 -6 -6 -6 -6 -6 -6 -6 -7 -7 -7 -7 -7 -7 -7 -7
-6 -6 -6 -6 -6 -5 -5 -5 -5 -5 -5 -5 -5 -5 -5 -5 -5 -5 -5 -5 -5 -5 -5 -5 -5 -5 -5 -6 -6 -6 -6 -6 -6 -6 -6 -7 -7 -7 -7 -7 -7 -6
-5 -5 -6 -6 -6 -6 -6 -5 -5 -5 -5 -5 -5 -5 -5 -5 -5 -5 -5 -5 -5 -5 -5 -5 -5 -5 -5 -6 -6 -6 -6 -6 -6 -6 -6 -7 -7 -7 -7 -7 -7 -7
-6 -6 -6 -6 -6 -6 -6 -5 -5 -5 -5 -5 -5 -5 -5 -5 -5 -5 -5 -5 -5 -5 -5 -5 -5 -5 -5 -6 -6 -6 -6 -6 -6 -6 -7 -7 -7 -7 -7 -7 -7 -7
-6 -6 -6 -6 -6 -6 -6 -6 -5 -5 -5 -5 -5 -5 -5 -5 -5 -5 -5 -5 -5 -5 -5 -5 -5 -6 -6 -6 -6 -6 -6 -6 -6 -6 -7 -7 -7 -7 -7 -7 -7 -7
-6 -6 -6 -6 -6 -6 -6 -6 -6 -5 -5 -5 -5 -5 -5 -5 -5 -5 -5 -5 -5 -5 -5 -5 -5 -6 -6 -6 -6 -6 -6 -6 -6 -6 -7 -7 -7 -7 -7 -7 -7 -7
-6 -6 -6 -6 -6 -6 -6 -6 -6 -5 -5 -5 -5 -5 -5 -5 -5 -5 -5 -5 -5 -5 -5 -5 -5 -6 -6 -6 -6 -6 -6 -6 -6 -6 -7 -7 -7 -7 -7 -7 -7 -7
-6 -6 -6 -6 -6 -6 -6 -6 -6 -5 -5 -5 -5 -5 -5 -5 -5 -5 -5 -5 -5 -5 -5 -5 -6 -6 -6 -6 -6 -6 -6 -6 -6 -6 -7 -7 -7 -7 -7 -7 -7 -7
-6 -6 -6 -6 -6 -6 -6 -6 -6 -5 -5 -6 -6 -5 -5 -5 -5 -5 -5 -5 -5 -5 -5 -5 -6 -6 -6 -6 -6 -6 -6 -6 -6 -6 -6 -6 -7 -7 -7 -7 -7 -7
-6 -6 -6 -6 -6 -6 -6 -6 -6 -6 -6 -6 -6 -6 -5 -5 -5 -5 -5 -5 -5 -5 -5 -5 -6 -6 -6 -6 -6 -6 -6 -6 -6 -6 -6 -6 -6 -7 -7 -7 -7 -7
-6 -6 -6 -6 -6 -6 -5 -5 -6 -6 -6 -6 -6 -6 -5 -5 -5 -6 -6 -6 -6 -6 -6 -6 -6 -6 -6 -6 -6 -6 -6 -6 -6 -6 -6 -6 -6 -6 -6 -6 -6 -7
-7 -6 -6 -6 -6 -5 -5 -5 -5 -6 -6 -6 -6 -6 -6 -6 -6 -6 -6 -6 -6 -6 -6 -6 -6 -6 -6 -6 -6 -6 -5 -5 -6 -6 -6 -6 -6 -6 -7 -7 -7 -6
-7 -7 -7 -6 -6 -6 -5 -5 -5 -6 -6 -6 -6 -6 -6 -6 -6 -6 -6 -6 -6 -6 -6 -6 -6 -6 -6 -6 -6 -6 -5 -5 -5 -6 -6 -6 -6 -7 -7 -7 -7 -7
-7 -7 -7 -7 -6 -6 -6 -6 -6 -6 -6 -6 -6 -6 -6 -6 -6 -6 -6 -6 -6 -6 -6 -6 -6 -6 -6 -6 -6 -6 -5 -5 -5 -5 -6 -6 -6 -7 -7 -7 -7 -7
-7 -7 -7 -7 -7 -7 -7 -7 -7 -6 -6 -6 -6 -6 -6 -6 -6 -6 -6 -6 -6 -6 -6 -6 -6 -6 -6 -6 -6 -6 -5 -5 -6 -6 -6 -6 -6 -6 -7 -7 -7 -7
-7 -7 -7 -7 -7 -8 -8 -8 -7 -7 -7 -7 -7 -7 -6 -6 -6 -6 -6 -6 -6 -6 -6 -6 -6 -6 -6 -6 -6 -5 -5 -5 -6 -6 -6 -6 -6 -6 -7 -7 -7 -7
-7 -7 -7 -8 -8 -8 -8 -8 -8 -8 -8 -7 -7 -7 -7 -7 -7 -6 -6 -6 -6 -6 -6 -6 -6 -6 -6 -6 -6 -6 -5 -5 -5 -5 -6 -6 -6 -7 -7 -7 -7 -7
Height
5935 5937 5938 5939 5939 5940 5941 5942 5943 5944 5945 5946 5946 5947 5948 5948 5948 5949 5950 5950 5950 5951 5952 5953 5954 5955 5956 5957 5957 5958 5958 5959 5959 5960 5961 5962 5962 5963 5963 5964 5965 5965
5934 5936 5937 5939 5939 5940 5941 5942 5943 5944 5945 5946 5947 5947 5948 5948 5948 5948 5949 5949 5950 5951 5951 5952 5954 5954 5955 5956 5957 5957 5958 5958 5959 5960 5961 5962 5962 5963 5964 5964 5965 5965
5933 5935 5936 5938 5939 5940 5941 5941 5942 5943 5945 5946 5947 5947 5948 5948 5948 5948 5948 5949 5949 5950 5951 5952 5953 5954 5954 5955 5956 5957 5958 5958 5959 5960 5961 5962 5963 5963 5964 5964 5964 5965
5932 5933 5935 5936 5938 5939 5940 5941 5942 5943 5944 5945 5946 5947 5948 5948 5948 5948 5948 5948 5948 5949 5950 5951 5952 5953 5953 5954 5955 5956 5957 5958 5959 5959 5960 5961 5962 5963 5964 5964 5964 5964
5931 5932 5933 5935 5936 5938 5940 5941 5942 5943 5943 5944 5945 5946 5947 5947 5947 5948 5948 5948 5948 5949 5949 5950 5951 5951 5952 5954 5955 5956 5956 5957 5958 5959 5960 5961 5962 5963 5963 5964 5964 5964
5929 5931 5932 5933 5935 5937 5938 5939 5941 5942 5942 5943 5944 5945 5946 5947 5947 5947 5948 5948 5949 5949 5949 5949 5950 5950 5951 5953 5954 5955 5955 5956 5957 5958 5959 5960 5961 5962 5962 5963 5964 5964
5928 5929 5930 5932 5934 5936 5937 5938 5939 5940 5941 5942 5943 5944 5945 5946 5947 5947 5948 5948 5949 5949 5949 5949 5949 5950 5951 5952 5953 5954 5954 5955 5956 5957 5958 5959 5960 5961 5961 5962 5963 5963
5926 5927 5929 5930 5932 5934 5935 5937 5938 5939 5940 5942 5942 5943 5944 5945 5946 5947 5948 5948 5948 5948 5949 5949 5949 5950 5950 5951 5952 5953 5953 5954 5955 5956 5957 5958 5959 5959 5960 5961 5961 5962
5925 5926 5927 5929 5931 5932 5934 5935 5936 5938 5939 5940 5941 5942 5943 5944 5945 5946 5947 5948 5948 5948 5948 5948 5949 5949 5950 5950 5951 5952 5952 5953 5954 5955 5956 5957 5958 5959 5959 5960 5960 5961
5923 5925 5926 5928 5929 5931 5932 5933 5934 5936 5937 5939 5940 5941 5942 5943 5944 5945 5946 5947 5947 5948 5948 5948 5948 5948 5949 5949 5950 5951 5952 5952 5953 5954 5955 5956 5957 5958 5958 5959 5960 5960
5921 5923 5925 5926 5928 5929 5930 5931 5932 5934 5935 5937 5938 5939 5940 5942 5943 5943 5944 5945 5946 5946 5947 5947 5947 5948 5948 5949 5950 5950 5951 5952 5952 5953 5954 5954 5955 5957 5957 5958 5959 5960
5919 5921 5923 5924 5926 5927 5927 5929 5930 5932 5933 5934 5936 5937 5939 5940 5941 5942 5943 5943 5944 5945 5946 5946 5947 5947 5948 5948 5949 5950 5950 5951 5952 5952 5953 5954 5954 5955 5956 5957 5958 5959
5916 5918 5920 5922 5923 5924 5925 5926 5928 5929 5931 5932 5934 5935 5937 5938 5940 5941 5941 5942 5942 5943 5944 5945 5946 5946 5947 5948 5948 5949 5950 5950 5951 5951 5952 5953 5953 5954 5955 5956 5957 5958
5913 5915 5917 5919 5920 5921 5922 5924 5926 5927 5929 5930 5931 5933 5935 5936 5937 5938 5939 5940 5941 5942 5942 5944 5945 5946 5946 5947 5948 5948 5949 5949 5950 5950 5951 5952 5953 5953 5954 5955 5956 5957
5910 5912 5914 5915 5917 5919 5920 5922 5924 5925 5927 5928 5930 5931 5933 5934 5935 5936 5937 5938 5939 5940 5941 5942 5943 5944 5945 5946 5946 5947 5948 5948 5949 5949 5950 5951 5952 5953 5954 5955 5955 5956
5907 5909 5910 5912 5914 5916 5917 5919 5921 5923 5924 5926 5927 5929 5930 5931 5932 5933 5935 5936 5937 5938 5939 5940 5942 5942 5943 5944 5945 5945 5946 5947 5948 5948 5949 5950 5951 5952 5953 5954 5955 5956
5906 5907 5908 5909 5911 5912 5914 5916 5918 5919 5921 5923 5924 5926 5927 5928 5929 5931 5932 5934 5934 5935 5937 5938 5939 5940 5941 5942 5943 5944 5945 5946 5947 5947 5948 5949 5950 5951 5952 5953 5954 5955
5904 5905 5906 5907 5908 5910 5911 5913 5914 5916 5918 5920 5921 5923 5924 5925 5927 5928 5930 5931 5932 5933 5934 5936 5937 5937 5938 5939 5940 5942 5943 5944 5945 5946 5947 5948 5949 5950 5950 5951 5952 5953
5902 5903 5904 5905 5906 5907 5908 5910 5911 5913 5915 5916 5918 5919 5920 5922 5924 5925 5927 5928 5929 5930 5932 5933 5934 5935 5935 5936 5938 5939 5940 5942 5943 5944 5945 5946 5947 5948 5949 5949 5950 5951
5898 5901 5902 5903 5904 5905 5906 5908 5909 5911 5912 5913 5915 5916 5918 5919 5921 5922 5924 5925 5926 5928 5929 5931 5932 5932 5933 5934 5935 5936 5938 5939 5940 5942 5943 5945 5946 5946 5947 5948 5949 5949
5895 5898 5900 5901 5902 5903 5904 5906 5907 5908 5910 5911 5912 5914 5915 5916 5918 5919 5921 5922 5923 5925 5926 5928 5929 5930 5931 5932 5933 5934 5935 5936 5938 5939 5941 5942 5944 5945 5945 5946 5946 5947
5892 5894 5896 5898 5900 5902 5903 5904 5905 5906 5907 5909 5910 5911 5912 5914 5915 5917 5918 5919 5920 5922 5923 5925 5926 5927 5928 5930 5931 5932 5933 5934 5935 5937 5938 5940 5941 5942 5943 5943 5944 5945
5888 5891 5893 5895 5897 5899 5901 5903 5904 5904 5905 5906 5908 5909 5910 5911 5913 5914 5915 5916 5918 5919 5921 5923 5923 5924 5925 5927 5928 5929 5931 5932 5933 5935 5936 5937 5938 5939 5940 5941 5941 5942
5885 5888 5890 5892 5894 5897 5899 5900 5901 5902 5903 5904 5906 5907 5908 5909 5910 5911 5913 5914 5916 5917 5919 5920 5921 5921 5923 5924 5926 5927 5928 5930 5931 5932 5933 5935 5936 5936 5937 5938 5939 5939
5882 5884 5887 5889 5891 5894 5896 5897 5898 5899 5900 5902 5903 5905 5906 5907 5908 5910 5911 5912 5913 5915 5917 5918 5919 5919 5921 5922 5923 5924 5925 5927 5928 5929 5931 5932 5933 5933 5934 5935 5936 5936
5878 5880 5883 5885 5888 5890 5892 5893 5894 5896 5897 5899 5901 5902 5903 5904 5906 5908 5909 5910 5911 5913 5914 5916 5917 5917 5918 5920 5920 5921 5922 5923 5924 5926 5928 5929 5929 5930 5931 5931 5932 5933
Wind_Speed
12 12 12 13 13 14 14 13 13 13 13 14 14 14 15 15 15 14 13 13 12 12 13 13 13 13 14 13 13 13 12 13 13 13 13 12 12 11 10 9 9 9
13 13 13 13 13 14 14 14 13 13 12 13 13 14 14 14 14 14 14 13 13 12 12 13 13 13 14 13 13 12 12 12 13 13 13 13 12 11 10 10 9 8
15 14 13 14 14 15 15 14 14 13 13 13 13 13 14 14 14 14 14 13 13 13 12 13 13 12 13 13 13 12 12 13 13 14 14 13 13 12 11 11 10 9
16 15 15 15 15 15 15 14 14 14 14 14 13 13 13 13 13 13 13 13 13 13 12 12 13 12 12 13 13 13 13 14 14 14 14 14 14 13 12 12 12 11
19 18 17 17 16 15 15 15 15 15 15 14 13 13 13 12 12 12 12 12 12 12 12 12 12 13 13 13 14 14 14 14 14 14 15 15 15 14 13 12 12 11
21 20 19 18 16 15 15 15 16 15 15 14 13 13 12 11 11 11 11 11 11 11 11 11 12 12 13 13 14 14 14 14 14 14 15 16 16 15 14 13 12 11
24 23 21 19 17 16 16 16 15 15 15 14 13 13 12 12 11 11 11 11 11 11 11 11 11 12 13 14 14 14 15 15 15 16 16 16 16 16 15 14 13 12
25 25 24 21 19 18 17 17 16 16 15 14 14 14 13 13 12 12 11 11 11 11 11 11 12 12 13 14 15 15 15 15 16 17 17 17 17 17 16 15 15 14
26 26 25 24 22 21 20 19 18 17 16 15 15 15 14 13 13 12 12 12 11 11 11 11 12 13 14 15 15 15 15 15 15 16 17 17 17 16 16 15 15 14
26 26 26 25 24 23 23 22 20 19 17 17 17 16 15 15 14 13 13 12 12 13 13 13 13 14 15 16 16 16 16 15 15 15 16 16 15 15 15 14 14 13
27 26 26 25 26 26 26 24 23 21 20 19 19 18 17 16 15 14 14 14 14 14 14 14 14 15 16 17 17 16 16 15 14 14 15 14 14 13 13 14 13 12
27 27 27 26 27 27 28 28 26 24 23 22 21 20 19 18 17 16 16 16 16 16 15 15 15 16 17 17 17 17 16 15 15 14 14 14 13 13 12 12 12 12
26 27 28 28 28 29 30 30 29 27 26 25 24 23 21 20 19 19 19 19 18 17 16 16 16 17 18 18 18 17 16 16 15 15 15 14 14 13 12 12 12 11
25 28 29 30 30 31 31 31 30 30 29 28 27 26 24 22 21 21 21 21 20 19 18 17 16 17 18 19 19 19 18 17 17 16 16 15 14 14 13 12 12 11
25 27 29 31 32 32 31 31 31 31 31 31 30 28 27 26 25 24 23 22 21 20 20 18 17 17 18 20 21 21 20 20 19 17 17 16 15 14 13 13 12 12
25 26 28 30 32 32 32 32 31 31 31 31 31 30 29 29 28 26 25 24 23 22 21 20 18 18 19 20 22 22 22 21 20 19 18 17 16 15 15 14 14 13
25 25 27 28 30 32 32 32 31 31 31 31 31 31 30 30 29 28 26 25 25 24 22 21 21 21 21 21 22 23 24 23 22 21 20 18 17 17 16 16 15 14
25 25 26 27 28 30 31 32 32 31 31 31 31 30 31 31 30 29 28 27 27 26 24 22 23 23 23 23 23 24 25 25 24 23 21 20 19 19 18 18 17 16
27 26 26 26 27 28 30 31 31 31 31 31 32 32 32 31 30 29 29 28 28 27 25 24 24 26 26 25 24 24 25 26 26 25 24 23 22 21 20 19 18 17
29 28 27 27 27 28 28 29 29 30 31 32 32 32 32 31 31 30 29 29 28 27 26 25 25 26 28 27 26 26 26 26 27 27 26 25 24 22 22 21 20 19
30 29 28 28 27 27 27 28 29 30 31 31 31 32 32 31 31 31 30 30 29 28 27 26 25 26 28 28 28 28 27 27 27 27 27 26 25 24 23 22 22 21
32 31 29 29 28 27 26 26 28 29 30 31 31 31 32 32 31 31 31 31 30 29 28 26 26 27 27 27 28 29 29 28 27 27 28 28 27 26 25 24 24 23
35 33 31 30 29 28 26 25 26 28 29 30 31 31 31 31 31 31 31 31 31 30 29 28 28 28 28 27 27 28 29 28 28 27 27 28 29 29 29 27 26 25
38 35 33 31 30 28 26 26 25 26 27 28 29 30 31 31 31 31 31 31 31 30 29 29 29 30 30 28 28 28 28 27 27 27 27 27 29 31 31 31 29 28
40 38 35 33 31 30 28 27 27 26 26 26 27 28 30 31 31 31 31 31 31 30 30 29 30 30 30 29 29 29 28 27 27 27 27 27 28 30 32 33 32 31
43 41 38 36 33 32 31 30 30 29 28 26 25 25 26 28 29 30 30 30 30 30 29 29 29 30 30 30 30 30 29 28 27 26 26 26 27 29 31 33 34 34
Wind_Direction
188 186 183 180 177 173 172 173 173 173 172 172 171 171 171 171 171 171 174 174 172 172 169 169 170 169 170 171 172 175 177 177 175 174 174 173 173 172 172 175 177 177
191 188 186 185 181 178 176 173 173 174 174 173 171 172 172 169 168 168 171 172 173 174 173 172 173 173 172 173 175 179 183 185 185 183 181 179 177 175 173 174 176 178
194 190 190 190 186 183 180 177 176 174 175 176 176 176 176 172 169 168 169 170 171 174 174 174 175 174 174 175 179 184 188 189 191 190 187 185 183 181 178 175 175 177
199 195 194 194 191 186 184 183 181 179 181 182 181 181 182 178 176 174 173 174 174 175 175 174 174 174 174 178 181 186 190 191 193 193 191 190 190 189 187 182 179 179
203 201 199 198 195 190 188 188 188 188 189 187 184 186 188 184 181 180 178 179 180 180 179 177 176 174 176 179 182 187 190 190 193 196 195 195 195 195 195 194 190 185
204 205 205 202 199 195 195 195 194 195 196 191 189 191 191 187 185 184 183 183 184 184 183 182 182 180 180 182 184 187 189 190 193 197 198 199 199 200 200 201 201 195
206 206 207 206 203 200 202 203 201 202 203 198 195 195 194 191 188 187 188 189 188 188 187 187 187 186 185 186 186 186 188 191 194 198 201 202 204 205 204 202 205 206
210 209 208 207 205 203 206 209 208 209 208 205 204 202 199 197 192 189 190 193 195 193 191 190 191 191 189 187 186 185 187 192 196 198 202 205 208 211 209 205 205 209
212 211 210 209 207 206 208 210 212 213 211 210 211 209 206 204 199 194 193 195 198 198 197 195 195 195 193 188 185 185 186 191 195 198 201 205 209 212 213 211 207 206
212 212 212 211 209 209 210 211 212 214 213 213 215 213 212 210 205 201 199 196 198 200 201 201 199 198 196 191 187 185 184 186 190 194 196 200 204 208 212 214 212 207
212 212 212 212 212 212 213 213 212 213 214 216 217 216 215 213 209 207 205 202 203 204 203 204 203 202 199 195 191 188 185 184 185 187 188 190 192 198 204 208 210 210
212 213 211 211 212 213 216 216 214 213 213 216 218 219 218 216 212 210 209 209 209 208 208 207 207 205 203 200 197 193 190 187 185 186 186 186 187 189 195 200 201 203
208 211 212 212 212 213 215 217 216 215 214 215 218 220 220 219 216 214 213 214 214 212 212 211 210 209 207 204 201 198 195 192 190 189 188 188 189 189 191 195 195 196
204 206 209 212 213 214 216 217 217 217 216 217 218 220 221 221 220 218 218 218 217 216 216 215 214 213 211 207 205 203 200 198 196 194 193 192 193 194 195 197 198 198
204 205 207 210 213 216 217 218 218 219 219 220 220 220 221 222 222 222 221 221 221 220 219 218 217 217 216 212 209 207 206 204 202 199 198 197 196 198 201 203 204 205
205 206 207 210 212 215 218 219 219 220 222 223 224 223 223 224 224 224 223 224 224 223 221 218 217 220 221 218 215 212 211 209 207 205 203 202 201 201 204 207 210 213
208 208 209 211 213 215 217 219 220 221 222 224 226 227 227 227 227 226 225 225 226 226 223 219 217 220 222 222 220 218 216 214 212 211 209 207 206 205 206 209 213 217
212 212 212 212 213 215 217 219 219 220 221 223 225 227 228 230 230 229 228 227 228 229 226 222 219 220 223 223 223 222 221 219 217 215 214 212 210 210 210 212 214 217
215 215 216 215 216 217 218 219 220 220 221 222 223 225 228 229 230 230 229 229 230 230 229 226 223 223 224 224 224 224 224 223 222 219 217 216 215 215 215 215 216 218
217 216 218 219 219 219 221 222 222 222 223 223 224 226 228 229 229 229 229 230 230 231 231 229 227 226 227 226 226 226 226 226 225 223 221 219 219 219 219 219 220 221
219 218 220 222 222 223 224 225 225 225 226 226 227 227 228 229 229 229 229 229 229 230 230 230 230 230 231 230 230 230 230 229 228 227 225 223 222 224 224 224 223 223
218 220 221 224 226 226 227 228 229 229 229 229 228 229 229 229 230 230 230 230 230 230 230 230 232 234 234 234 234 234 235 234 232 230 228 226 225 225 226 227 227 226
217 219 222 224 227 229 230 231 232 233 233 232 232 231 231 231 231 231 231 232 232 232 232 231 232 235 236 236 236 237 238 239 238 236 233 230 228 227 227 229 229 228
217 219 222 225 228 229 230 232 234 235 236 235 235 234 234 233 233 233 233 235 235 236 235 234 235 237 238 239 239 240 240 240 241 240 239 237 235 232 230 230 231 231
217 217 219 223 226 228 229 231 233 235 236 237 237 237 237 237 236 236 236 237 238 239 239 239 239 242 243 244 245 245 244 242 242 241 241 242 241 240 238 235 234 234
219 216 217 219 222 224 225 227 230 232 235 236 237 239 240 241 240 239 239 240 240 241 242 242 242 244 247 248 249 250 250 248 246 243 242 243 243 243 243 241 239 238